| time (UTC) | temp F | wind direction | speed MPH | gust MPH | rain 1hr in | rain 24hr in | rain mn in | humidity % | barometer mb |
| 20260506112125 | 44 | 0.0 | 0.0 | 0.00 | 1.19 | 0.23 | 96 | 1011.6 | |
| 20260506111049 | 44 | 0.0 | 0.0 | 0.00 | 1.19 | 0.23 | 96 | 1011.4 | |
| 20260506110024 | 44 | 0.0 | 0.0 | 0.00 | 1.19 | 0.23 | 96 | 1011.2 | |
| 20260506105022 | 44 | 0.0 | 0.0 | 0.00 | 1.20 | 0.23 | 96 | 1010.7 | |
| 20260506103942 | 44 | 0.0 | 0.0 | 0.00 | 1.20 | 0.23 | 96 | 1011.2 | |
| 20260506102857 | 44 | 0.0 | 0.0 | 0.00 | 1.20 | 0.23 | 95 | 1011.0 | |
| 20260506101820 | 44 | 0.0 | 0.0 | 0.01 | 1.20 | 0.23 | 95 | 1010.5 | |
| 20260506100750 | 44 | 0.0 | 0.0 | 0.01 | 1.20 | 0.23 | 95 | 1010.5 | |
| 20260506095721 | 44 | 0.0 | 0.0 | 0.02 | 1.20 | 0.23 | 95 | 1010.0 | |
| 20260506094651 | 44 | 0.0 | 0.0 | 0.02 | 1.20 | 0.23 | 95 | 1010.3 | |
| 20260506093622 | 44 | 135 | 2.0 | 3.0 | 0.02 | 1.20 | 0.23 | 95 | 1010.9 |
| 20260506092622 | 0 | 0.0 | 0.0 | 0.01 | 1.19 | 0.22 | 1011.4 | ||
| 20260506091556 | 45 | 135 | 1.0 | 3.0 | 0.02 | 1.19 | 0.22 | 95 | 1011.4 |
| 20260506090517 | 45 | 0.0 | 0.0 | 0.03 | 1.18 | 0.21 | 95 | 1010.8 | |
| 20260506085420 | 0 | 0.0 | 0.0 | 0.05 | 1.18 | 0.21 | 1010.7 | ||
| 20260506084356 | 45 | 0.0 | 0.0 | 0.06 | 1.18 | 0.21 | 95 | 1010.7 | |
| 20260506083353 | 0 | 0.0 | 0.0 | 0.07 | 1.18 | 0.21 | 1010.7 | ||
| 20260506082305 | 0 | 0.0 | 0.0 | 0.07 | 1.17 | 0.20 | 1010.7 | ||
| 20260506081226 | 45 | 0.0 | 0.0 | 0.08 | 1.16 | 0.19 | 95 | 1010.9 | |
| 20260506080201 | 45 | 0.0 | 0.0 | 0.06 | 1.14 | 0.17 | 95 | 1011.0 | |
| 20260506073017 | 45 | 0.0 | 0.0 | 0.03 | 1.10 | 0.13 | 94 | 1010.7 | |
| 20260506071956 | 45 | 0.0 | 0.0 | 0.04 | 1.10 | 0.13 | 94 | 1010.7 | |
| 20260506070952 | 45 | 0.0 | 0.0 | 0.02 | 1.08 | 0.11 | 94 | 1010.7 | |
| 20260506061713 | 0 | 0.0 | 0.0 | 0.03 | 1.06 | 0.09 | 1010.8 | ||
| 20260506060622 | 45 | 0.0 | 0.0 | 0.04 | 1.06 | 0.09 | 93 | 1010.9 | |
| 20260506051352 | 46 | 135 | 1.0 | 2.0 | 0.04 | 1.02 | 0.05 | 94 | 1011.0 |
| 20260506050322 | 46 | 135 | 1.0 | 2.0 | 0.05 | 1.02 | 0.05 | 94 | 1011.0 |
| 20260506044229 | 0 | 0.0 | 0.0 | 0.05 | 1.00 | 0.03 | 1011.4 | ||
| 20260506043150 | 47 | 0.0 | 0.0 | 0.05 | 0.99 | 0.02 | 94 | 1011.4 | |
| 20260506042121 | 0 | 0.0 | 0.0 | 0.05 | 0.98 | 0.01 | 1011.4 | ||
| 20260506041105 | 0 | 0.0 | 0.0 | 0.06 | 0.98 | 0.01 | 1011.6 | ||
| 20260506040047 | 48 | 0.0 | 0.0 | 0.07 | 0.97 | 0.00 | 94 | 1011.7 | |
| 20260506035328 | 48 | 0.0 | 0.0 | 0.09 | 0.96 | 0.96 | 94 | 1011.9 | |
| 20260506034240 | 48 | 0.0 | 1.0 | 0.09 | 0.95 | 0.95 | 94 | 1011.9 | |
| 20260506033202 | 0 | 0.0 | 0.0 | 0.11 | 0.94 | 0.94 | 1011.9 | ||
| 20260506032122 | 48 | 0.0 | 0.0 | 0.13 | 0.93 | 0.93 | 94 | 1011.9 | |
| 20260506031109 | 0 | 0.0 | 0.0 | 0.15 | 0.92 | 0.92 | 1011.9 | ||
| 20260506030021 | 48 | 0.0 | 0.0 | 0.16 | 0.90 | 0.90 | 94 | 1012.1 | |
| 20260506024956 | 48 | 0.0 | 0.0 | 0.14 | 0.87 | 0.87 | 94 | 1012.1 | |
| 20260506023934 | 48 | 0.0 | 0.0 | 0.14 | 0.84 | 0.84 | 94 | 1011.7 | |
| 20260506022920 | 48 | 0.0 | 0.0 | 0.14 | 0.82 | 0.82 | 94 | 1011.4 | |
| 20260506021818 | 49 | 0.0 | 0.0 | 0.13 | 0.80 | 0.80 | 94 | 1011.6 | |
| 20260506020754 | 49 | 0.0 | 0.0 | 0.10 | 0.76 | 0.76 | 94 | 1011.4 | |
| 20260506015724 | 0 | 0.0 | 0.0 | 0.08 | 0.74 | 0.74 | 1011.2 | ||
| 20260506014651 | 0 | 135 | 1.0 | 1.0 | 0.06 | 0.72 | 0.72 | 1011.2 | |
| 20260506013633 | 49 | 0.0 | 0.0 | 0.05 | 0.69 | 0.69 | 94 | 1011.2 | |
| 20260506012546 | 0 | 0.0 | 0.0 | 0.06 | 0.68 | 0.68 | 1011.2 | ||
| 20260506011526 | 0 | 0.0 | 0.0 | 0.08 | 0.67 | 0.67 | 1011.2 | ||
| 20260506010456 | 0 | 0.0 | 0.0 | 0.09 | 0.66 | 0.66 | 1011.2 | ||
| 20260506005420 | 0 | 0.0 | 0.0 | 0.10 | 0.66 | 0.66 | 1010.9 | ||
| 20260506004411 | 49 | 135 | 2.0 | 3.0 | 0.09 | 0.65 | 0.65 | 94 | 1010.9 |
| 20260506003325 | 49 | 135 | 1.0 | 2.0 | 0.07 | 0.63 | 0.63 | 93 | 1011.0 |
| 20260506002246 | 49 | 1.0 | 2.0 | 0.04 | 0.60 | 0.60 | 93 | 1010.7 | |
| 20260506001227 | 49 | 113 | 1.0 | 2.0 | 0.03 | 0.58 | 0.58 | 93 | 1010.7 |
| 20260506000220 | 49 | 0.0 | 0.0 | 0.02 | 0.56 | 0.56 | 93 | 1010.7 | |
| 20260505235117 | 49 | 0.0 | 0.0 | 0.04 | 0.56 | 0.56 | 93 | 1010.7 | |
| 20260505234059 | 50 | 113 | 1.0 | 1.0 | 0.10 | 0.56 | 0.56 | 93 | 1010.7 |
| 20260505233045 | 50 | 113 | 0.0 | 1.0 | 0.16 | 0.56 | 0.56 | 92 | 1010.9 |
| 20260505232005 | 50 | 113 | 0.0 | 1.0 | 0.17 | 0.56 | 0.56 | 92 | 1010.9 |
| 20260505230923 | 50 | 0.0 | 0.0 | 0.18 | 0.55 | 0.55 | 91 | 1011.2 | |
| 20260505225850 | 50 | 0.0 | 1.0 | 0.18 | 0.54 | 0.54 | 91 | 1011.2 | |
| 20260505224836 | 51 | 113 | 1.0 | 3.0 | 0.17 | 0.51 | 0.51 | 91 | 1011.2 |
| 20260505223753 | 51 | 260 | 2.0 | 2.0 | 0.10 | 0.42 | 0.42 | 91 | 1010.7 |
| 20260505222718 | 52 | 113 | 0.0 | 1.0 | 0.10 | 0.40 | 0.40 | 91 | 1010.7 |
| 20260505221658 | 53 | 158 | 0.0 | 1.0 | 0.11 | 0.39 | 0.39 | 91 | 1010.7 |
| 20260505220641 | 53 | 0.0 | 0.0 | 0.11 | 0.37 | 0.37 | 90 | 1010.5 | |
| 20260505215546 | 54 | 158 | 1.0 | 2.0 | 0.16 | 0.36 | 0.36 | 89 | 1010.4 |
| 20260505214518 | 54 | 158 | 1.0 | 2.0 | 0.16 | 0.35 | 0.33 | 89 | 1010.3 |
| 20260505213454 | 55 | 158 | 1.0 | 2.0 | 0.17 | 0.33 | 0.31 | 90 | 1010.4 |
| 20260505212511 | 57 | 0.0 | 1.0 | 0.18 | 0.31 | 0.29 | 92 | 1010.1 | |
| 20260505211353 | 57 | 0.0 | 0.0 | 0.18 | 0.29 | 0.27 | 92 | 1010.3 | |
| 20260505205300 | 57 | 0.0 | 0.0 | 0.16 | 0.21 | 0.19 | 91 | 1010.3 | |
| 20260505204247 | 57 | 113 | 0.0 | 1.0 | 0.13 | 0.18 | 0.16 | 90 | 1010.1 |
| 20260505203211 | 58 | 0.0 | 0.0 | 0.12 | 0.15 | 0.13 | 90 | 1010.1 | |
| 20260505202127 | 58 | 0.0 | 0.0 | 0.09 | 0.12 | 0.10 | 89 | 1010.2 | |
| 20260505201106 | 58 | 0.0 | 0.0 | 0.05 | 0.08 | 0.06 | 87 | 1010.4 | |
| 20260505200029 | 58 | 0.0 | 0.0 | 0.03 | 0.06 | 0.04 | 86 | 1010.2 | |
| 20260505194953 | 59 | 0.0 | 0.0 | 0.02 | 0.05 | 0.03 | 85 | 1010.4 | |
| 20260505194042 | 59 | 0.0 | 0.0 | 0.01 | 0.04 | 0.02 | 84 | 1010.4 | |
| 20260505192859 | 60 | 113 | 2.0 | 3.0 | 0.00 | 0.03 | 0.01 | 79 | 1010.3 |
| 20260505191833 | 62 | 113 | 2.0 | 2.0 | 0.00 | 0.03 | 0.01 | 77 | 1010.3 |
| 20260505190747 | 63 | 113 | 2.0 | 2.0 | 0.00 | 0.03 | 0.01 | 77 | 1010.3 |
| 20260505185727 | 64 | 113 | 1.0 | 2.0 | 0.00 | 0.03 | 0.01 | 74 | 1010.3 |
| 20260505184651 | 64 | 113 | 2.0 | 3.0 | 0.00 | 0.03 | 0.01 | 74 | 1010.4 |
| 20260505183640 | 64 | 113 | 2.0 | 2.0 | 0.00 | 0.03 | 0.01 | 74 | 1010.3 |
| 20260505182559 | 64 | 113 | 1.0 | 1.0 | 0.00 | 0.03 | 0.01 | 74 | 1010.3 |
| 20260505181523 | 65 | 0.0 | 0.0 | 0.00 | 0.03 | 0.01 | 72 | 1010.3 | |
| 20260505180500 | 65 | 158 | 1.0 | 2.0 | 0.00 | 0.03 | 0.01 | 73 | 1010.2 |
| 20260505175422 | 65 | 158 | 2.0 | 4.0 | 0.00 | 0.03 | 0.01 | 72 | 1010.2 |
| 20260505174400 | 64 | 257 | 2.0 | 3.0 | 0.00 | 0.03 | 0.01 | 70 | 1010.2 |
| 20260505173318 | 64 | 158 | 1.0 | 3.0 | 0.00 | 0.03 | 0.01 | 70 | 1010.2 |
| 20260505172259 | 64 | 113 | 2.0 | 3.0 | 0.00 | 0.03 | 0.01 | 70 | 1010.2 |
| 20260505171227 | 65 | 239 | 3.0 | 4.0 | 0.00 | 0.03 | 0.01 | 68 | 1010.1 |
| 20260505170153 | 66 | 113 | 2.0 | 3.0 | 0.00 | 0.03 | 0.01 | 68 | 1010.1 |
| 20260505165203 | 65 | 1.0 | 2.0 | 0.00 | 0.03 | 0.01 | 68 | 1010.1 | |
| 20260505164056 | 66 | 264 | 4.0 | 4.0 | 0.00 | 0.03 | 0.01 | 65 | 1009.9 |
| 20260505163033 | 66 | 158 | 2.0 | 3.0 | 0.00 | 0.03 | 0.01 | 66 | 1009.9 |
| 20260505161959 | 66 | 113 | 3.0 | 4.0 | 0.00 | 0.03 | 0.01 | 65 | 1009.9 |
| 20260505160923 | 67 | 113 | 2.0 | 2.0 | 0.00 | 0.03 | 0.01 | 65 | 1009.9 |
| 20260505152727 | 69 | 135 | 2.0 | 4.0 | 0.00 | 0.03 | 0.01 | 60 | 1008.8 |
| 20260505151651 | 70 | 113 | 3.0 | 3.0 | 0.00 | 0.03 | 0.01 | 61 | 1008.7 |
| 20260505150649 | 69 | 113 | 2.0 | 2.0 | 0.00 | 0.03 | 0.01 | 61 | 1008.8 |
| 20260505140327 | 68 | 75 | 2.0 | 5.0 | 0.00 | 0.03 | 0.01 | 68 | 1008.6 |
| 20260505130131 | 61 | 158 | 1.0 | 2.0 | 0.00 | 0.03 | 0.01 | 77 | 1008.9 |
| 20260505124956 | 61 | 158 | 1.0 | 3.0 | 0.00 | 0.03 | 0.01 | 77 | 1008.8 |
| 20260505123918 | 61 | 135 | 1.0 | 2.0 | 0.00 | 0.03 | 0.01 | 77 | 1008.8 |
| 20260505122858 | 60 | 135 | 1.0 | 3.0 | 0.00 | 0.03 | 0.01 | 77 | 1008.6 |
| 20260505121818 | 60 | 135 | 1.0 | 3.0 | 0.00 | 0.03 | 0.01 | 76 | 1008.1 |
| 20260505120801 | 60 | 158 | 2.0 | 3.0 | 0.00 | 0.03 | 0.01 | 77 | 1008.1 |
| 20260505115726 | 60 | 0.0 | 0.0 | 0.00 | 0.03 | 0.01 | 77 | 1007.6 | |
| 20260505114651 | 60 | 0.0 | 0.0 | 0.01 | 0.03 | 0.01 | 77 | 1007.3 | |
| 20260505113633 | 60 | 0.0 | 0.0 | 0.01 | 0.03 | 0.01 | 77 | 1007.3 |